Location: Unspecified
(43.3830°N, 0.0000°E)
Time: 13:06:06
(UTC+00:00)

Explorer 7 - Pass Details

Date: 28 June 2019
Orbit: 485 x 680 km, 50.3° (Epoch: 23 July)

Event Time Altitude Azimuth Distance (km) Brightness Sun altitude
Rises 09:09:49 0° 283° (WNW) 2,764 10.0 49.2°
Reaches altitude 10° 09:12:11 10° 293° (WNW) 1,902 9.3 49.6°
Maximum altitude 09:16:10 33° 359° (N) 1,022 8.4 50.3°
Drops below altitude 10° 09:20:22 10° 64° (ENE) 2,015 10.3 51.0°
Sets 09:22:57 0° 74° (ENE) 2,954 11.0 51.5°
